[[{"header":{"parameterUnit":"m.s-1","parameterCategory":1,"la1":30.2991,"la2":30.254,"lo1":-89.0895,"lo2":-89.0444,"dy":0.0017,"dx":0.0017,"nx":28,"ny":28,"refTime":"2025-08-04T21:00:00:Z","depth":0,"parameterNumber":2,"parameterNumberName":"U-component_of_WINDS"},"data":[0,0,0,0,0,0,0,0,0,0,0,0,0,0,0,0,0,0,0,0,0,0,0,0,0,0,0,0,0,0,0,0,0,0,0,0,0,0,0,0,0,0,0,0,0,0,0,0,0,0,0,0,0,0,0,0,0,0,-1.3973,-1.3973,0,-1.3961,-1.3961,-1.3961,-1.395,-1.395,-1.3949,-1.3949,-1.3938,-1.3938,-1.3938,0,0,0,0,0,0,0,0,0,0,0,0,0,-1.3985,-1.3985,-1.3973,-1.3973,-1.3973,-1.3961,-1.3961,-1.3961,-1.395,-1.395,-1.3949,-1.3949,-1.3938,-1.3938,-1.3938,0,0,0,0,0,0,0,0,0,0,0,0,0,-1.3977,-1.3985,-1.3973,-1.3966,-1.3965,-1.3961,-1.3961,-1.3961,-1.395,-1.395,-1.3949,-1.3949,-1.3938,-1.3938,-1.3938,-1.3941,0,0,-1.3937,-1.3937,0,0,0,0,0,0,0,0,-1.3978,-1.3977,-1.3967,-1.3966,-1.3965,-1.3957,-1.3961,-1.3954,-1.395,-1.3955,-1.3949,-1.3949,-1.3944,-1.3944,-1.3942,-1.394,-1.394,-1.3937,-1.3937,-1.3937,-1.3937,0,0,0,0,0,0,0,-1.3978,-1.3977,-1.3968,-1.3967,-1.3966,-1.3963,-1.3961,-1.396,-1.3951,-1.3955,-1.3954,-1.3953,-1.3944,-1.3942,-1.3942,-1.394,-1.3937,-1.3937,-1.3937,-1.3937,-1.3939,-1.3939,0,0,0,0,0,0,-1.398,-1.3978,-1.3969,-1.3968,-1.3971,-1.3963,-1.3961,-1.396,-1.3951,-1.395,-1.3953,-1.3952,-1.3943,-1.3942,-1.3941,-1.3944,-1.3937,-1.3936,-1.3936,-1.3939,-1.3939,-1.3939,0,0,0,0,0,0,-1.398,-1.3979,-1.3969,-1.3973,-1.3971,-1.3963,-1.3961,-1.396,-1.3958,-1.395,-1.3948,-1.3953,-1.3943,-1.3942,-1.3941,-1.3943,-1.3936,-1.3936,-1.3938,-1.3939,-1.3939,-1.3949,0,0,0,0,0,0,-1.3981,-1.3979,-1.3981,-1.3973,-1.3971,-1.3969,-1.3961,-1.3959,-1.3957,-1.3956,-1.3949,-1.3948,-1.3942,-1.3941,-1.3941,-1.3943,-1.3936,-1.3938,-1.3938,-1.3939,-1.3948,-1.395,-1.3951,0,0,0,0,0,-1.3981,-1.3984,-1.3981,-1.398,-1.3972,-1.3969,-1.3968,-1.3961,-1.3958,-1.3959,-1.3953,-1.3948,-1.3943,-1.3941,-1.394,-1.3943,-1.3938,-1.3938,-1.3939,-1.3948,-1.3949,-1.3951,0,0,0,0,0,0,-1.3993,-1.3983,-1.3979,-1.398,-1.3975,-1.3967,-1.3968,-1.3963,-1.396,-1.3959,-1.3951,-1.3949,-1.3949,-1.3946,-1.3944,-1.3945,-1.394,-1.394,-1.3947,-1.3948,-1.3949,-1.395,-1.3936,0,0,0,0,0,-1.3996,-1.3994,-1.3985,-1.3986,-1.3984,-1.3977,-1.3975,-1.397,-1.3965,-1.3963,-1.3958,-1.3954,-1.3951,-1.3949,-1.3947,-1.3948,-1.3946,-1.3949,-1.395,-1.3951,-1.3951,-1.3951,-1.3952,-1.3941,-1.3941,-1.3941,0,0,-1.4001,-1.3995,-1.3995,-1.3989,-1.3985,-1.3983,-1.3975,-1.3974,-1.3972,-1.3963,-1.3962,-1.3958,-1.3952,-1.3952,-1.3952,-1.3949,-1.3954,-1.3952,-1.3952,-1.3952,-1.3951,-1.3953,-1.3954,-1.3941,-1.3941,-1.3941,0,0,-1.401,-1.4006,-1.4006,-1.4002,-1.3996,-1.399,-1.399,-1.3983,-1.398,-1.3978,-1.3971,-1.3969,-1.3965,-1.3961,-1.3958,-1.3965,-1.396,-1.3964,-1.397,-1.397,-1.3971,-1.3971,-1.3973,-1.3974,-1.3965,-1.3965,-1.3965,0,-1.4018,-1.4014,-1.4007,-1.4005,-1.4003,-1.3994,-1.3994,-1.3991,-1.3984,-1.3982,-1.3979,-1.3973,-1.3969,-1.3967,-1.3969,-1.3967,-1.3967,-1.3965,-1.3971,-1.3972,-1.3972,-1.3974,-1.3975,-1.3965,-1.3965,-1.3965,-1.3965,0,-1.4024,-1.4022,-1.4023,-1.4016,-1.4013,-1.4013,-1.4005,-1.4003,-1.3998,-1.3993,-1.3991,-1.3986,-1.3981,-1.3981,-1.3976,-1.3978,-1.3977,-1.3973,-1.3968,-1.3974,-1.3976,-1.3976,-1.3966,-1.3966,-1.3966,-1.3966,0,0,-1.404,-1.4029,-1.4029,-1.4026,-1.4018,-1.4016,-1.4015,-1.401,-1.4008,-1.4004,-1.4002,-1.3999,-1.3994,-1.3991,-1.3986,-1.3986,-1.3991,-1.3982,-1.3982,-1.3983,-1.3992,-1.3995,-1.3996,-1.3987,-1.3988,-1.3988,-1.3993,0,-1.4048,-1.4045,-1.4037,-1.4037,-1.4034,-1.4026,-1.4025,-1.402,-1.4015,-1.4012,-1.4007,-1.4004,-1.3999,-1.3997,-1.3996,-1.3991,-1.3993,-1.399,-1.3986,-1.3986,-1.3987,-1.3997,-1.4,-1.4005,-1.3993,-1.3993,-1.3993,0,-1.4056,-1.4051,-1.405,-1.4042,-1.404,-1.404,-1.4034,-1.4032,-1.4026,-1.4022,-1.4018,-1.4012,-1.401,-1.4006,-1.4003,-1.4001,-1.3999,-1.3996,-1.3996,-1.3995,-1.399,-1.3996,-1.4007,-1.4007,-1.3994,-1.3994,-1.3994,0,-1.4067,-1.4061,-1.4059,-1.4057,-1.4047,-1.4046,-1.4042,-1.4036,-1.4033,-1.4028,-1.4027,-1.4022,-1.4019,-1.4016,-1.4008,-1.4006,-1.4006,-1.4001,-1.4003,-1.4003,-1.4003,-1.4003,-1.4013,-1.4002,-1.4002,-1.4002,-1.4002,0,-1.4076,-1.4076,-1.4064,-1.4063,-1.4062,-1.4054,-1.4053,-1.4048,-1.4042,-1.404,-1.4033,-1.4031,-1.4022,-1.4018,-1.4013,-1.4011,-1.401,-1.4006,-1.4005,-1.4007,-1.4007,-1.4005,-1.4005,-1.4002,-1.4002,-1.4002,-1.4002,0,-1.4089,-1.4081,-1.4078,-1.4069,-1.4067,-1.4066,-1.4058,-1.4057,-1.4051,-1.4048,-1.4047,-1.4039,-1.4034,-1.4027,-1.4021,-1.4017,-1.4016,-1.4013,-1.4018,-1.4017,-1.4019,-1.4019,-1.4028,-1.4028,-1.4017,-1.4017,-1.4018,0,-1.4095,-1.4094,-1.4084,-1.4082,-1.4078,-1.4075,-1.4072,-1.4063,-1.406,-1.4053,-1.4052,-1.4047,-1.4043,-1.4037,-1.403,-1.4025,-1.4022,-1.4026,-1.4021,-1.4023,-1.4022,-1.4022,-1.4021,-1.4027,-1.4027,-1.4027,-1.4027,0,-1.4106,-1.4102,-1.4098,-1.4092,-1.4089,-1.4084,-1.4079,-1.4077,-1.4068,-1.4065,-1.406,-1.4057,-1.405,-1.4045,-1.4039,-1.4035,-1.4029,-1.4028,-1.4028,-1.403,-1.4033,-1.4031,-1.402,-1.4028,-1.4028,-1.4028,-1.4028,-1.4028,-1.4115,-1.4114,-1.4106,-1.4102,-1.4097,-1.4092,-1.409,-1.4084,-1.408,-1.4074,-1.4069,-1.4064,-1.4058,-1.4049,-1.4045,-1.4041,-1.4039,-1.4039,-1.4039,-1.4039,-1.4039,-1.4033,-1.404,-1.404,-1.404,-1.404,-1.404,0,-1.4125,-1.412,-1.4116,-1.4109,-1.4105,-1.41,-1.4093,-1.4091,-1.4087,-1.4081,-1.4077,-1.4071,-1.4066,-1.4058,-1.4053,-1.4051,-1.4048,-1.405,-1.405,-1.4049,-1.4042,-1.4043,-1.4052,-1.4052,-1.4052,-1.4052,-1.4052,-1.4052,-1.413,-1.4127,-1.4123,-1.4117,-1.4112,-1.4107,-1.4104,-1.41,-1.4095,-1.4089,-1.4084,-1.4079,-1.4073,-1.4066,-1.4061,-1.4059,-1.4057,-1.406,-1.4057,-1.4051,-1.4049,-1.4048,-1.4049,-1.4059,-1.4059,-1.4063,-1.4063,-1.4063]},{"header":{"parameterUnit":"m.s-1","parameterCategory":1,"la1":30.2991,"la2":30.254,"lo1":-89.0895,"lo2":-89.0444,"dy":0.0017,"dx":0.0017,"nx":28,"ny":28,"refTime":"2025-08-04T21:00:00:Z","depth":0,"parameterNumber":3,"parameterNumberName":"V-component_of_WINDS"},"data":[0,0,0,0,0,0,0,0,0,0,0,0,0,0,0,0,0,0,0,0,0,0,0,0,0,0,0,0,0,0,0,0,0,0,0,0,0,0,0,0,0,0,0,0,0,0,0,0,0,0,0,0,0,0,0,0,0,0,-0.1428,-0.1429,0,-0.1484,-0.1485,-0.1486,-0.1512,-0.1512,-0.1512,-0.1512,-0.1574,-0.1576,-0.1577,0,0,0,0,0,0,0,0,0,0,0,0,0,-0.1347,-0.1348,-0.1428,-0.1429,-0.143,-0.1484,-0.1485,-0.1486,-0.1512,-0.1512,-0.1512,-0.1512,-0.1573,-0.1575,-0.1577,0,0,0,0,0,0,0,0,0,0,0,0,0,-0.1391,-0.1349,-0.1428,-0.1449,-0.1452,-0.1484,-0.1485,-0.1486,-0.1512,-0.1512,-0.1512,-0.1512,-0.1573,-0.1575,-0.1578,-0.1594,0,0,-0.1585,-0.1586,0,0,0,0,0,0,0,0,-0.1388,-0.1394,-0.1446,-0.1448,-0.1451,-0.1491,-0.1479,-0.1523,-0.1512,-0.149,-0.1512,-0.1512,-0.1547,-0.1551,-0.1562,-0.1597,-0.16,-0.1586,-0.1587,-0.1588,-0.1589,0,0,0,0,0,0,0,-0.1385,-0.1391,-0.1451,-0.1446,-0.1449,-0.1457,-0.1463,-0.1487,-0.1518,-0.1492,-0.1494,-0.15,-0.1548,-0.156,-0.1564,-0.1601,-0.1586,-0.1588,-0.1589,-0.159,-0.1652,-0.1652,0,0,0,0,0,0,-0.1378,-0.1389,-0.1449,-0.1452,-0.1418,-0.1459,-0.1465,-0.1478,-0.1518,-0.1524,-0.15,-0.1501,-0.1555,-0.1561,-0.1566,-0.1588,-0.1588,-0.1591,-0.1592,-0.1652,-0.1652,-0.1652,0,0,0,0,0,0,-0.1376,-0.1383,-0.1447,-0.1421,-0.143,-0.146,-0.1474,-0.148,-0.1491,-0.1524,-0.153,-0.1506,-0.1556,-0.1563,-0.1587,-0.159,-0.1592,-0.1594,-0.1651,-0.1652,-0.1652,-0.1631,0,0,0,0,0,0,-0.1374,-0.1382,-0.1388,-0.1421,-0.1431,-0.1465,-0.1475,-0.1481,-0.1495,-0.1497,-0.1531,-0.1537,-0.1556,-0.1583,-0.1589,-0.1594,-0.1596,-0.1651,-0.1652,-0.1652,-0.1632,-0.1631,-0.163,0,0,0,0,0,-0.1371,-0.1382,-0.1389,-0.1396,-0.1439,-0.1465,-0.1471,-0.1492,-0.1495,-0.1502,-0.1523,-0.1536,-0.1589,-0.1585,-0.1592,-0.1598,-0.1651,-0.1651,-0.1652,-0.1632,-0.1631,-0.163,0,0,0,0,0,0,-0.1351,-0.1386,-0.1394,-0.1416,-0.1437,-0.147,-0.1479,-0.149,-0.1512,-0.1514,-0.154,-0.1547,-0.1569,-0.1586,-0.1581,-0.1616,-0.1621,-0.1623,-0.1604,-0.1603,-0.1602,-0.1597,-0.1598,0,0,0,0,0,-0.1348,-0.1365,-0.1396,-0.1412,-0.1422,-0.1448,-0.1461,-0.1475,-0.1499,-0.1508,-0.1531,-0.1555,-0.1577,-0.1591,-0.1613,-0.1634,-0.1642,-0.1642,-0.1641,-0.164,-0.1641,-0.1653,-0.1653,-0.1653,-0.1653,-0.1653,0,0,-0.1344,-0.1366,-0.1376,-0.1409,-0.1427,-0.1445,-0.1456,-0.1475,-0.1489,-0.1512,-0.1535,-0.1553,-0.1581,-0.1603,-0.1614,-0.1618,-0.1643,-0.164,-0.1639,-0.1641,-0.1653,-0.1653,-0.1653,-0.1653,-0.1653,-0.1653,0,0,-0.1346,-0.1364,-0.1379,-0.1396,-0.1423,-0.144,-0.1444,-0.1474,-0.1486,-0.151,-0.1527,-0.1544,-0.1582,-0.1601,-0.1615,-0.1623,-0.1635,-0.1629,-0.1624,-0.1636,-0.1636,-0.1636,-0.1638,-0.1639,-0.163,-0.163,-0.163,0,-0.1338,-0.1365,-0.1386,-0.1403,-0.1417,-0.1436,-0.1452,-0.1468,-0.1501,-0.1511,-0.1514,-0.156,-0.1581,-0.1608,-0.1609,-0.1621,-0.1626,-0.1626,-0.1634,-0.1634,-0.1635,-0.1637,-0.1638,-0.1629,-0.163,-0.163,-0.163,0,-0.1354,-0.1372,-0.1381,-0.141,-0.1426,-0.1442,-0.1465,-0.1478,-0.1491,-0.1508,-0.1532,-0.1556,-0.1583,-0.1591,-0.1604,-0.1619,-0.1621,-0.1628,-0.1635,-0.1633,-0.1636,-0.1637,-0.1628,-0.1628,-0.1629,-0.1629,0,0,-0.1346,-0.1385,-0.1388,-0.1401,-0.1431,-0.1446,-0.1463,-0.1488,-0.1498,-0.152,-0.1536,-0.1566,-0.1573,-0.1589,-0.1605,-0.1615,-0.1618,-0.1622,-0.1623,-0.162,-0.1637,-0.163,-0.1631,-0.1627,-0.1627,-0.1627,-0.1634,0,-0.1352,-0.1382,-0.14,-0.1424,-0.1441,-0.1459,-0.1474,-0.1494,-0.151,-0.1528,-0.1546,-0.1567,-0.1575,-0.1585,-0.1595,-0.1616,-0.1622,-0.1616,-0.1642,-0.1643,-0.1634,-0.1633,-0.1627,-0.1632,-0.1635,-0.1636,-0.1636,0,-0.1363,-0.1383,-0.1407,-0.1434,-0.1442,-0.1455,-0.1478,-0.1495,-0.1518,-0.1529,-0.1546,-0.1562,-0.1581,-0.1585,-0.1613,-0.1608,-0.162,-0.1631,-0.1632,-0.1635,-0.1639,-0.1636,-0.1634,-0.1635,-0.1638,-0.1638,-0.1638,0,-0.1354,-0.1387,-0.1405,-0.1416,-0.1448,-0.1456,-0.147,-0.1494,-0.1507,-0.1528,-0.1537,-0.1561,-0.1574,-0.1592,-0.1613,-0.1614,-0.1639,-0.1645,-0.1649,-0.1648,-0.1654,-0.1653,-0.1653,-0.1661,-0.1661,-0.1661,-0.1661,0,-0.1359,-0.1373,-0.1401,-0.1413,-0.1429,-0.145,-0.1466,-0.1482,-0.1502,-0.1517,-0.1535,-0.1549,-0.1576,-0.1594,-0.1611,-0.1631,-0.1637,-0.1647,-0.1651,-0.1645,-0.1644,-0.1654,-0.1654,-0.1661,-0.1661,-0.1661,-0.1661,0,-0.1352,-0.1372,-0.1393,-0.142,-0.1428,-0.1439,-0.1463,-0.1475,-0.1491,-0.151,-0.1516,-0.1542,-0.1564,-0.1587,-0.1617,-0.1628,-0.1648,-0.1654,-0.1639,-0.1642,-0.1644,-0.1644,-0.1651,-0.1653,-0.1659,-0.1659,-0.1659,0,-0.1354,-0.1365,-0.1393,-0.1404,-0.1417,-0.1434,-0.1447,-0.1468,-0.1481,-0.1508,-0.1517,-0.1539,-0.1558,-0.1593,-0.1615,-0.1638,-0.1645,-0.1646,-0.1649,-0.1642,-0.1645,-0.1644,-0.1645,-0.1645,-0.1645,-0.1645,-0.1645,0,-0.1355,-0.1364,-0.1381,-0.1401,-0.1416,-0.1433,-0.1452,-0.146,-0.1484,-0.1498,-0.1519,-0.1534,-0.1563,-0.1586,-0.1611,-0.1627,-0.164,-0.1643,-0.1645,-0.164,-0.163,-0.1635,-0.1636,-0.1643,-0.1643,-0.1643,-0.1643,-0.1644,-0.1353,-0.1363,-0.1384,-0.1402,-0.1418,-0.1434,-0.1446,-0.1463,-0.1481,-0.1505,-0.1517,-0.1538,-0.1561,-0.1596,-0.1611,-0.1629,-0.1633,-0.1636,-0.1637,-0.1637,-0.1636,-0.1627,-0.1634,-0.1634,-0.1634,-0.1634,-0.1634,0,-0.1355,-0.1368,-0.1385,-0.1409,-0.1423,-0.1432,-0.1452,-0.1464,-0.1482,-0.1502,-0.1519,-0.1544,-0.1565,-0.1589,-0.1612,-0.1621,-0.1628,-0.1627,-0.1626,-0.163,-0.1631,-0.1627,-0.1621,-0.1621,-0.1621,-0.1621,-0.1621,-0.1621,-0.1357,-0.1374,-0.1385,-0.141,-0.1424,-0.1444,-0.1455,-0.147,-0.1485,-0.1511,-0.1528,-0.1542,-0.1564,-0.1588,-0.1608,-0.1615,-0.1623,-0.162,-0.1628,-0.1629,-0.163,-0.1631,-0.1627,-0.1621,-0.1621,-0.1625,-0.1625,-0.1625]}]]